Flag for U.S.A. Weather past 2 weeks in New Orleans, Louisiana, U.S.A.

Now
79 °F

Clear.


Feels Like: 83 °F
Forecast: 75 / 86 °F
Wind: 8 mph from Southeast

Location: Lakefront Airport

Current Time: May 27, 2015 at 7:10:02 AM

Latest Report: May 27, 2015 at 6:53 AM


Visibility: 10 mi

Pressure: 30.07 "Hg

Humidity: 84%

Dew point: 74 °F

Location of New OrleansLocation

Historic Weather in New Orleans — Graph

°F

New Orleans temperature yesterday

Maximum temperature yesterday: 87 °F (at 3:53 PM)
Minimum temperature yesterday: 71 °F (at 5:01 AM)
Average temperature yesterday: 80 °F

Past Weeks' High & Low Weather Summary

 TemperatureHumidityPressure
High90 °F (May 16, 1:53 PM)87% (May 26, 5:01 AM)30.20 "Hg (May 26, 5:01 AM)
Low70 °F (May 22, 7:53 AM)50% (May 22, 4:53 PM)29.94 "Hg (May 20, 5:53 PM)
Average81 °F70%30.07 "Hg
* Reported May 12 5:53 AM — May 27 5:53 AM, New Orleans, Weather by CustomWeather, © 2015

Note: Actual official high and low records may vary slightly from our data, if they occured in-between our weather recording intervals... More about our weather records

Advertising

New Orleans weather history for previous 24 hours

 ConditionsComfort  
Time TempWeatherWind HumidityBarometerVisibility
5:53 AM
Wed, May 27
79 °FPassing clouds.7 mph84%30.07 "Hg9 mi
4:53 AM79 °FClear.7 mph84%30.06 "Hg10 mi
4:01 AM80 °FPassing clouds.6 mph81%30.10 "Hg9 mi
2:53 AM80 °FPartly cloudy.7 mph85%30.08 "Hg10 mi
1:53 AM79 °FClear.5 mph82%30.06 "Hg10 mi
12:53 AM79 °FClear.7 mph82%30.06 "Hg10 mi
11:53 PM
Tue, May 26
80 °FClear.7 mph81%30.07 "Hg10 mi
10:53 PM80 °FClear.5 mph79%30.09 "Hg10 mi
9:53 PM81 °FClear.8 mph77%30.09 "Hg10 mi
8:53 PM82 °FClear.8 mph72%30.07 "Hg10 mi
7:53 PM83 °FScattered clouds.7 mph68%30.06 "Hg10 mi
6:53 PM84 °FSunny.9 mph70%30.06 "Hg10 mi
5:53 PM87 °FPassing clouds.9 mph57%30.05 "Hg10 mi
4:53 PM87 °FSunny.8 mph57%30.05 "Hg10 mi
3:53 PM87 °FSunny.8 mph55%30.06 "Hg10 mi
2:53 PM84 °FSunny.8 mph59%30.07 "Hg10 mi
1:53 PM85 °FSunny.9 mph57%30.06 "Hg10 mi
12:53 PM82 °FSunny.10 mph60%30.07 "Hg10 mi
11:53 AM81 °FSunny.17 mph62%30.06 "Hg10 mi
10:53 AM76 °FSunny.12 mph69%30.07 "Hg10 mi
9:53 AM72 °FSunny.9 mph78%30.09 "Hg10 mi
8:53 AM73 °FSunny.13 mph74%30.08 "Hg10 mi
7:53 AM72 °FPassing clouds.13 mph76%30.11 "Hg10 mi
Weather by CustomWeather, © 2015

See weather overviewHow to use our weather pages